When you browse on this site, cookies collect data to enhance your experience and personalize the content and advertising you see.
Visit our Privacy Policy to learn more. By continuing to use the site, you agree to this use of cookies and data.
  • In Hungary
  • List of Countries
  • For 7 days
  • Water Temperature
  • Satellite Maps
  • Weather Map
  • News
  • Weather Widgets
  • user-avatar
    Login

    Hourly Weather Berislav

    Today, 18 November, Sunday

    Time Temperature Precipitation Wind Pressure Humidity
    00:00 -1°C° 0 mm 2 mps 768 mmHg 80%
    01:00 -1°C° 0 mm 2 mps 768 mmHg 82%
    02:00 -2°C° 0 mm 2 mps 768 mmHg 85%
    03:00 -2°C° 0 mm 2 mps 768 mmHg 85%
    04:00 -2°C° 0 mm 2 mps 768 mmHg 85%
    05:00 -2°C° 0 mm 2 mps 767 mmHg 85%
    06:00 0°C° 0 mm 1 mps 767 mmHg 83%
    07:00 +1°C° 0 mm 1 mps 767 mmHg 81%
    08:00 +2°C° 0 mm 1 mps 766 mmHg 81%
    09:00 +2°C° 0 mm 1 mps 766 mmHg 79%
    10:00 +3°C° 0 mm 1 mps 766 mmHg 77%
    11:00 +2°C° 0 mm 0 mps 766 mmHg 76%
    12:00 +2°C° 0 mm 0 mps 765 mmHg 75%
    13:00 +4°C° 0 mm 1 mps 765 mmHg 74%
    14:00 +4°C° 0 mm 1 mps 765 mmHg 77%
    15:00 +4°C° 0 mm 1 mps 765 mmHg 80%
    16:00 +4°C° 0 mm 1 mps 764 mmHg 82%
    17:00 +4°C° 0 mm 1 mps 764 mmHg 84%
    18:00 +3°C° 0 mm 1 mps 764 mmHg 85%
    19:00 +3°C° 0 mm 1 mps 764 mmHg 86%
    20:00 +3°C° 0 mm 1 mps 764 mmHg 87%
    21:00 +2°C° 0 mm 2 mps 764 mmHg 87%
    22:00 +2°C° 0 mm 2 mps 764 mmHg 87%
    23:00 +2°C° 0 mm 2 mps 763 mmHg 86%

    Tomorrow, 19 November, Monday

    Time Temperature Precipitation Wind Pressure Humidity
    00:00 +2°C° 0 mm 2 mps 763 mmHg 85%
    01:00 +2°C° 0 mm 2 mps 763 mmHg 84%
    02:00 +1°C° 0 mm 3 mps 763 mmHg 84%
    03:00 +1°C° 0 mm 3 mps 763 mmHg 82%
    04:00 +1°C° 0 mm 3 mps 763 mmHg 80%
    05:00 +1°C° 0 mm 3 mps 762 mmHg 79%
    06:00 0°C° 0 mm 4 mps 762 mmHg 78%
    07:00 0°C° 0 mm 4 mps 762 mmHg 77%
    08:00 0°C° 0 mm 5 mps 762 mmHg 76%
    09:00 +1°C° 0.1 mm 5 mps 762 mmHg 77%
    10:00 +1°C° 0.1 mm 5 mps 762 mmHg 77%
    11:00 +2°C° 0.1 mm 6 mps 762 mmHg 78%
    12:00 +2°C° 0.8 mm 6 mps 761 mmHg 79%
    13:00 +2°C° 0.8 mm 7 mps 761 mmHg 80%
    14:00 +2°C° 0.8 mm 7 mps 760 mmHg 81%
    15:00 +1°C° 1.3 mm 8 mps 759 mmHg 83%
    16:00 +1°C° 1.3 mm 8 mps 759 mmHg 85%
    17:00 +1°C° 1.3 mm 8 mps 758 mmHg 87%
    18:00 +1°C° 0.9 mm 8 mps 758 mmHg 88%
    19:00 +2°C° 0.9 mm 9 mps 757 mmHg 88%
    20:00 +2°C° 0.9 mm 9 mps 757 mmHg 89%
    21:00 +3°C° 0.7 mm 9 mps 756 mmHg 90%
    22:00 +3°C° 0.7 mm 9 mps 756 mmHg 90%
    23:00 +4°C° 0.7 mm 8 mps 755 mmHg 91%

    Day after tomorrow, 20 November, Tuesday

    Time Temperature Precipitation Wind Pressure Humidity
    00:00 +5°C° 0.2 mm 7 mps 755 mmHg 92%
    01:00 +5°C° 0.2 mm 6 mps 755 mmHg 92%
    02:00 +6°C° 0.2 mm 5 mps 755 mmHg 93%
    03:00 +6°C° 0.3 mm 5 mps 755 mmHg 94%
    04:00 +6°C° 0.3 mm 5 mps 755 mmHg 94%
    05:00 +6°C° 0.3 mm 4 mps 755 mmHg 94%
    06:00 +5°C° 0.2 mm 5 mps 756 mmHg 92%
    07:00 +4°C° 0.2 mm 6 mps 756 mmHg 90%
    08:00 +3°C° 0.2 mm 6 mps 757 mmHg 88%
    09:00 +3°C° 0 mm 6 mps 758 mmHg 85%
    10:00 +3°C° 0 mm 6 mps 758 mmHg 83%
    11:00 +2°C° 0 mm 6 mps 759 mmHg 80%
    12:00 +2°C° 0 mm 5 mps 759 mmHg 78%
    13:00 +2°C° 0 mm 5 mps 760 mmHg 77%
    14:00 +3°C° 0 mm 5 mps 760 mmHg 76%
    15:00 +2°C° 0 mm 5 mps 761 mmHg 77%
    16:00 +3°C° 0 mm 4 mps 761 mmHg 78%
    17:00 +1°C° 0 mm 4 mps 761 mmHg 79%
    18:00 +1°C° 0 mm 4 mps 762 mmHg 80%
    19:00 +1°C° 0 mm 4 mps 762 mmHg 82%
    20:00 0°C° 0 mm 4 mps 762 mmHg 83%
    21:00 +1°C° 0 mm 3 mps 762 mmHg 84%
    22:00 +1°C° 0 mm 3 mps 762 mmHg 85%
    23:00 +1°C° 0 mm 3 mps 762 mmHg 86%

    21 November, Wednesday

    Time Temperature Precipitation Wind Pressure Humidity
    00:00 +1°C° 0 mm 3 mps 762 mmHg 86%
    01:00 +1°C° 0 mm 3 mps 762 mmHg 85%
    02:00 +1°C° 0 mm 3 mps 762 mmHg 84%
    03:00 +1°C° 0 mm 3 mps 762 mmHg 85%
    04:00 0°C° 0 mm 4 mps 762 mmHg 85%
    05:00 0°C° 0 mm 4 mps 761 mmHg 85%
    06:00 0°C° 0.1 mm 4 mps 762 mmHg 85%
    07:00 0°C° 0.1 mm 4 mps 762 mmHg 84%
    08:00 0°C° 0.1 mm 4 mps 762 mmHg 84%
    09:00 0°C° 0.2 mm 4 mps 761 mmHg 83%
    10:00 +1°C° 0.2 mm 4 mps 761 mmHg 81%
    11:00 +1°C° 0.2 mm 5 mps 761 mmHg 80%
    12:00 +1°C° 0.1 mm 5 mps 761 mmHg 79%
    13:00 +1°C° 0.1 mm 5 mps 761 mmHg 78%
    14:00 +2°C° 0.1 mm 5 mps 761 mmHg 77%
    15:00 +1°C° 0 mm 5 mps 761 mmHg 79%
    16:00 +1°C° 0 mm 5 mps 761 mmHg 80%
    17:00 0°C° 0 mm 5 mps 761 mmHg 82%
    18:00 0°C° 0 mm 5 mps 761 mmHg 82%
    19:00 0°C° 0 mm 5 mps 761 mmHg 82%
    20:00 -1°C° 0 mm 5 mps 761 mmHg 82%
    21:00 -1°C° 0 mm 5 mps 761 mmHg 82%
    22:00 -2°C° 0 mm 5 mps 762 mmHg 82%
    23:00 -2°C° 0 mm 5 mps 762 mmHg 83%

    22 November, Thursday

    Time Temperature Precipitation Wind Pressure Humidity
    00:00 -4°C° 0 mm 5 mps 762 mmHg 82%
    01:00 -4°C° 0 mm 5 mps 762 mmHg 82%
    02:00 -4°C° 0 mm 5 mps 762 mmHg 82%
    03:00 -4°C° 0 mm 5 mps 762 mmHg 82%
    04:00 -5°C° 0 mm 5 mps 762 mmHg 82%
    05:00 -5°C° 0 mm 5 mps 762 mmHg 83%
    06:00 -5°C° 0 mm 5 mps 763 mmHg 81%
    07:00 -5°C° 0 mm 5 mps 763 mmHg 79%
    08:00 -5°C° 0 mm 5 mps 763 mmHg 77%
    09:00 -2°C° 0 mm 5 mps 764 mmHg 71%
    10:00 -1°C° 0 mm 5 mps 764 mmHg 66%
    11:00 0°C° 0 mm 5 mps 764 mmHg 61%
    12:00 0°C° 0 mm 5 mps 764 mmHg 60%
    13:00 0°C° 0 mm 5 mps 764 mmHg 59%
    14:00 +1°C° 0 mm 5 mps 763 mmHg 59%
    15:00 -1°C° 0 mm 5 mps 764 mmHg 64%
    16:00 -2°C° 0 mm 4 mps 764 mmHg 70%
    17:00 -3°C° 0 mm 4 mps 764 mmHg 76%
    18:00 -3°C° 0 mm 4 mps 764 mmHg 79%
    19:00 -3°C° 0 mm 4 mps 765 mmHg 81%
    20:00 -4°C° 0 mm 4 mps 765 mmHg 84%
    21:00 -4°C° 0 mm 4 mps 765 mmHg 84%
    22:00 -4°C° 0 mm 3 mps 766 mmHg 84%
    23:00 -4°C° 0 mm 3 mps 766 mmHg 84%

    23 November, Friday

    Time Temperature Precipitation Wind Pressure Humidity
    00:00 -5°C° 0 mm 3 mps 766 mmHg 83%
    01:00 -5°C° 0 mm 3 mps 766 mmHg 83%
    02:00 -5°C° 0 mm 3 mps 766 mmHg 82%
    03:00 -5°C° 0 mm 3 mps 766 mmHg 83%
    04:00 -5°C° 0 mm 3 mps 767 mmHg 83%
    05:00 -5°C° 0 mm 3 mps 767 mmHg 84%
    06:00 -5°C° 0 mm 3 mps 767 mmHg 84%
    07:00 -5°C° 0 mm 4 mps 768 mmHg 83%
    08:00 -5°C° 0 mm 4 mps 768 mmHg 83%
    09:00 -3°C° 0 mm 4 mps 768 mmHg 78%
    10:00 -2°C° 0 mm 4 mps 769 mmHg 72%
    11:00 -1°C° 0 mm 4 mps 769 mmHg 67%
    12:00 -1°C° 0 mm 4 mps 769 mmHg 66%
    13:00 0°C° 0 mm 4 mps 769 mmHg 64%
    14:00 +1°C° 0 mm 3 mps 769 mmHg 63%
    15:00 0°C° 0 mm 3 mps 769 mmHg 69%
    16:00 -1°C° 0 mm 3 mps 769 mmHg 74%
    17:00 -2°C° 0 mm 3 mps 769 mmHg 80%
    18:00 -2°C° 0 mm 3 mps 769 mmHg 82%
    19:00 -4°C° 0 mm 3 mps 770 mmHg 84%
    20:00 -4°C° 0 mm 3 mps 770 mmHg 86%
    21:00 -3°C° 0 mm 2 mps 770 mmHg 86%
    22:00 -3°C° 0 mm 2 mps 770 mmHg 87%
    23:00 -3°C° 0 mm 2 mps 770 mmHg 87%
    Show more